UAL785 KLNK-KOMA

Flight info

Callsign UAL785
Flight time 0h 18m
Altitude 11000
Route BUFFT
Aircraft B737/M-SDE2E3FGHIRWXY/LB1

Departure

Time 2026-04-25 14:28
Airport Lincoln Airport (KLNK)

Arrival

Time 2026-04-25 14:46
Airport Eppley Airfield (KOMA)
Time Latitude Longitude Altitude Speed Heading
2026-04-25 14:16 40.84697 -96.75398 1187 ft 0 kts 259°
2026-04-25 14:23 40.84698 -96.75401 1187 ft 2 kts 275°
2026-04-25 14:23 40.84746 -96.75409 1188 ft 15 kts 359°
2026-04-25 14:23 40.84888 -96.75475 1191 ft 29 kts 325°
2026-04-25 14:23 40.85006 -96.75614 1193 ft 18 kts 282°
2026-04-25 14:24 40.84952 -96.75753 1194 ft 17 kts 233°
2026-04-25 14:24 40.84878 -96.75893 1195 ft 23 kts 233°
2026-04-25 14:24 40.84742 -96.76037 1195 ft 16 kts 210°
2026-04-25 14:24 40.84733 -96.76044 1195 ft 0 kts 211°
2026-04-25 14:25 40.84702 -96.76069 1196 ft 12 kts 208°
2026-04-25 14:25 40.84540 -96.76159 1198 ft 39 kts 191°
2026-04-25 14:25 40.84273 -96.76183 1197 ft 38 kts 180°
2026-04-25 14:25 40.84068 -96.76181 1195 ft 52 kts 180°
2026-04-25 14:26 40.83575 -96.76187 1183 ft 51 kts 181°
2026-04-25 14:26 40.83238 -96.76204 1188 ft 46 kts 183°
2026-04-25 14:26 40.82937 -96.76217 1190 ft 41 kts 181°
2026-04-25 14:26 40.82803 -96.76230 1185 ft 5 kts 190°
2026-04-25 14:27 40.82785 -96.76201 1185 ft 6 kts 52°
2026-04-25 14:27 40.82858 -96.76197 1188 ft 35 kts 355°
2026-04-25 14:27 40.83429 -96.76190 1185 ft 127 kts
2026-04-25 14:27 40.84564 -96.76183 1344 ft 190 kts
2026-04-25 14:28 40.85995 -96.76166 1980 ft 226 kts
2026-04-25 14:28 40.87694 -96.76158 2602 ft 260 kts
2026-04-25 14:28 40.89483 -96.75263 2976 ft 285 kts 45°
2026-04-25 14:28 40.90669 -96.73305 4604 ft 264 kts 62°
2026-04-25 14:29 40.91667 -96.71234 5789 ft 273 kts 63°
2026-04-25 14:29 40.92697 -96.69112 7082 ft 275 kts 61°
2026-04-25 14:29 40.93778 -96.67006 8322 ft 280 kts 59°
2026-04-25 14:29 40.94926 -96.64884 9499 ft 286 kts 57°
2026-04-25 14:30 40.96128 -96.62754 10540 ft 295 kts 55°
2026-04-25 14:30 40.98660 -96.58450 10997 ft 301 kts 53°
2026-04-25 14:30 40.99976 -96.56271 10999 ft 303 kts 53°
2026-04-25 14:31 41.01297 -96.54105 10988 ft 301 kts 53°
2026-04-25 14:31 41.02611 -96.51961 10999 ft 299 kts 53°
2026-04-25 14:31 41.03919 -96.49833 11008 ft 297 kts 52°
2026-04-25 14:31 41.05224 -96.47714 11007 ft 296 kts 52°
2026-04-25 14:32 41.06527 -96.45601 11014 ft 296 kts 52°
2026-04-25 14:32 41.07829 -96.43488 11000 ft 296 kts 52°
2026-04-25 14:32 41.09128 -96.41375 11005 ft 296 kts 53°
2026-04-25 14:32 41.10316 -96.39202 10965 ft 294 kts 69°
2026-04-25 14:33 41.10817 -96.36642 11020 ft 284 kts 84°
2026-04-25 14:33 41.11144 -96.34110 10905 ft 272 kts 83°
2026-04-25 14:33 41.11484 -96.31697 10798 ft 259 kts 83°
2026-04-25 14:33 41.11826 -96.29383 10536 ft 253 kts 83°
2026-04-25 14:34 41.12169 -96.27102 10177 ft 252 kts 82°
2026-04-25 14:34 41.12518 -96.24835 9818 ft 250 kts 82°
2026-04-25 14:34 41.12859 -96.22578 9439 ft 248 kts 88°
2026-04-25 14:34 41.12708 -96.20363 9006 ft 238 kts 112°
2026-04-25 14:35 41.12212 -96.18290 8698 ft 235 kts 112°
2026-04-25 14:35 41.11676 -96.16262 8350 ft 231 kts 117°
2026-04-25 14:35 41.11036 -96.14320 7984 ft 229 kts 119°
2026-04-25 14:35 41.10388 -96.12401 7657 ft 226 kts 119°
2026-04-25 14:36 41.09743 -96.10501 7369 ft 224 kts 119°
2026-04-25 14:36 41.09108 -96.08622 7007 ft 223 kts 119°
2026-04-25 14:36 41.08478 -96.06753 6742 ft 221 kts 119°
2026-04-25 14:36 41.07857 -96.04895 6408 ft 220 kts 118°
2026-04-25 14:37 41.07244 -96.03047 6088 ft 217 kts 119°
2026-04-25 14:37 41.06637 -96.01216 5693 ft 217 kts 119°
2026-04-25 14:37 41.06030 -95.99389 5308 ft 216 kts 119°
2026-04-25 14:37 41.05425 -95.97576 4925 ft 215 kts 119°
2026-04-25 14:38 41.04815 -95.95783 4552 ft 212 kts 123°
2026-04-25 14:38 41.03912 -95.94307 4253 ft 203 kts 140°
2026-04-25 14:38 41.02817 -95.93140 3917 ft 201 kts 155°
2026-04-25 14:38 41.01479 -95.92710 3651 ft 197 kts 172°
2026-04-25 14:39 41.00195 -95.92124 3231 ft 200 kts 138°
2026-04-25 14:39 40.99633 -95.90507 3156 ft 197 kts 101°
2026-04-25 14:39 40.99592 -95.88728 3021 ft 190 kts 92°
2026-04-25 14:39 40.99954 -95.87093 3000 ft 186 kts 67°
2026-04-25 14:40 41.00765 -95.85744 2961 ft 193 kts 40°
2026-04-25 14:40 41.01972 -95.85000 3012 ft 194 kts 20°
2026-04-25 14:40 41.03322 -95.84875 2972 ft 197 kts 349°
2026-04-25 14:40 41.04619 -95.85342 3001 ft 191 kts 348°
2026-04-25 14:41 41.05921 -95.85673 2993 ft 190 kts 351°
2026-04-25 14:41 41.07211 -95.86057 3018 ft 189 kts 348°
2026-04-25 14:41 41.08501 -95.86465 2947 ft 192 kts 347°
2026-04-25 14:41 41.09771 -95.86897 3003 ft 186 kts 344°
2026-04-25 14:42 41.11031 -95.87311 2968 ft 185 kts 347°
2026-04-25 14:42 41.11450 -95.87439 2985 ft 183 kts 348°
2026-04-25 14:42 41.13590 -95.88094 2957 ft 193 kts 347°
2026-04-25 14:42 41.14869 -95.88499 2972 ft 187 kts 347°
2026-04-25 14:43 41.16148 -95.88863 3003 ft 190 kts 350°
2026-04-25 14:43 41.17419 -95.89248 2990 ft 183 kts 347°
2026-04-25 14:43 41.18664 -95.89492 2975 ft 178 kts
2026-04-25 14:43 41.19923 -95.89509 2794 ft 189 kts
2026-04-25 14:44 41.21246 -95.89528 2473 ft 191 kts
2026-04-25 14:44 41.22510 -95.89564 2394 ft 175 kts
2026-04-25 14:44 41.23700 -95.89476 2192 ft 169 kts
2026-04-25 14:44 41.24857 -95.89507 1953 ft 163 kts 360°
2026-04-25 14:45 41.25949 -95.89490 1699 ft 152 kts
2026-04-25 14:45 41.26987 -95.89490 1447 ft 147 kts
2026-04-25 14:45 41.28004 -95.89461 1229 ft 147 kts
2026-04-25 14:45 41.29020 -95.89462 1039 ft 143 kts 360°
2026-04-25 14:46 41.29944 -95.89459 984 ft 114 kts
2026-04-25 14:46 41.30463 -95.89457 985 ft 25 kts
2026-04-25 14:46 41.30595 -95.89504 985 ft 16 kts 324°
2026-04-25 14:46 41.30622 -95.89530 987 ft 2 kts 324°
2026-04-25 14:47 41.30631 -95.89589 988 ft 10 kts 229°
2026-04-25 14:47 41.30610 -95.89602 988 ft 10 kts 187°
2026-04-25 14:47 41.30473 -95.89604 987 ft 17 kts 180°
2026-04-25 14:47 41.30313 -95.89605 989 ft 28 kts 180°
2026-04-25 14:48 41.30124 -95.89604 988 ft 26 kts 180°
2026-04-25 14:48 41.29947 -95.89605 988 ft 25 kts 180°
2026-04-25 14:48 41.29813 -95.89620 986 ft 12 kts 221°
2026-04-25 14:48 41.29750 -95.89687 987 ft 12 kts 186°
2026-04-25 14:49 41.29667 -95.89692 990 ft 12 kts 190°
2026-04-25 14:49 41.29641 -95.89783 984 ft 11 kts 269°
2026-04-25 14:49 41.29671 -95.89862 986 ft 11 kts
2026-04-25 14:49 41.29706 -95.89853 984 ft 3 kts 13°
2026-04-25 14:50 41.29710 -95.89851 988 ft 0 kts 13°